DAL2999 KMKE-KATL

Flight info

Callsign DAL2999
Flight time 1h 36m
Altitude 37000
Route UECKR6 SAMPL OXI IIU/N0452F360 MTHEW CHPPR1
Aircraft B739/M-SDE2E3FGHIRWXY/LB1

Departure

Time 2026-05-04 18:23
Airport General Mitchell International Airport (KMKE)

Arrival

Time 2026-05-04 19:59
Airport Hartsfield Jackson Atlanta International Airport (KATL)
Time Latitude Longitude Altitude Speed Heading
2026-05-04 18:00 42.94848 -87.89922 687 ft 0 kts 99°
2026-05-04 18:15 42.94855 -87.89980 681 ft 4 kts 103°
2026-05-04 18:15 42.94864 -87.90015 680 ft 4 kts 114°
2026-05-04 18:16 42.94868 -87.90027 681 ft 4 kts 109°
2026-05-04 18:16 42.94872 -87.90000 682 ft 4 kts 47°
2026-05-04 18:16 42.94892 -87.89992 682 ft 4 kts 12°
2026-05-04 18:17 42.94941 -87.89967 685 ft 4 kts 43°
2026-05-04 18:17 42.94951 -87.89950 681 ft 0 kts 54°
2026-05-04 18:18 42.94960 -87.89932 687 ft 6 kts 59°
2026-05-04 18:18 42.94979 -87.89864 684 ft 8 kts 71°
2026-05-04 18:18 42.94982 -87.89789 687 ft 8 kts 112°
2026-05-04 18:19 42.94963 -87.89618 687 ft 11 kts 125°
2026-05-04 18:19 42.94890 -87.89602 684 ft 11 kts 186°
2026-05-04 18:19 42.94809 -87.89615 683 ft 12 kts 187°
2026-05-04 18:20 42.94722 -87.89630 681 ft 13 kts 188°
2026-05-04 18:20 42.94635 -87.89625 686 ft 13 kts 136°
2026-05-04 18:20 42.94617 -87.89509 680 ft 13 kts 97°
2026-05-04 18:20 42.94610 -87.89392 687 ft 12 kts 86°
2026-05-04 18:21 42.94632 -87.89281 681 ft 12 kts 71°
2026-05-04 18:21 42.94658 -87.89172 687 ft 13 kts 72°
2026-05-04 18:21 42.94690 -87.89040 684 ft 16 kts 71°
2026-05-04 18:21 42.94711 -87.88918 686 ft 11 kts 104°
2026-05-04 18:22 42.94648 -87.88860 683 ft 11 kts 171°
2026-05-04 18:22 42.94601 -87.88932 683 ft 15 kts 252°
2026-05-04 18:22 42.94497 -87.89355 683 ft 79 kts 251°
2026-05-04 18:22 42.94264 -87.90318 688 ft 132 kts 250°
2026-05-04 18:23 42.93938 -87.91634 942 ft 154 kts 253°
2026-05-04 18:23 42.93404 -87.92945 1367 ft 167 kts 224°
2026-05-04 18:23 42.92332 -87.93598 1856 ft 181 kts 186°
2026-05-04 18:23 42.91068 -87.93531 2445 ft 181 kts 194°
2026-05-04 18:24 42.89739 -87.93518 2717 ft 213 kts 170°
2026-05-04 18:24 42.88433 -87.92236 2942 ft 244 kts 143°
2026-05-04 18:24 42.87160 -87.90589 3289 ft 264 kts 141°
2026-05-04 18:24 42.85871 -87.88729 3901 ft 273 kts 139°
2026-05-04 18:25 42.84606 -87.86828 4825 ft 272 kts 138°
2026-05-04 18:25 42.83306 -87.84865 5384 ft 286 kts 138°
2026-05-04 18:25 42.81940 -87.82829 5973 ft 297 kts 136°
2026-05-04 18:25 42.80544 -87.80748 6783 ft 297 kts 136°
2026-05-04 18:26 42.79142 -87.78672 7576 ft 299 kts 137°
2026-05-04 18:26 42.77715 -87.76568 8238 ft 306 kts 137°
2026-05-04 18:26 42.76269 -87.74431 9044 ft 307 kts 137°
2026-05-04 18:26 42.74807 -87.72281 9743 ft 312 kts 137°
2026-05-04 18:27 42.73321 -87.70106 10413 ft 317 kts 137°
2026-05-04 18:27 42.71765 -87.67841 10616 ft 339 kts 137°
2026-05-04 18:27 42.70032 -87.65552 10787 ft 355 kts 150°
2026-05-04 18:27 42.67753 -87.64235 11023 ft 359 kts 175°
2026-05-04 18:28 42.65266 -87.63917 11557 ft 361 kts 182°
2026-05-04 18:28 42.62788 -87.63786 12259 ft 362 kts 183°
2026-05-04 18:28 42.60267 -87.63655 12982 ft 364 kts 183°
2026-05-04 18:28 42.57730 -87.63499 13632 ft 366 kts 183°
2026-05-04 18:29 42.55138 -87.63319 14221 ft 370 kts 182°
2026-05-04 18:29 42.52585 -87.63132 14766 ft 374 kts 183°
2026-05-04 18:29 42.49970 -87.62932 15312 ft 378 kts 182°
2026-05-04 18:29 42.47329 -87.62719 15868 ft 382 kts 182°
2026-05-04 18:30 42.41972 -87.62369 16948 ft 386 kts 189°
2026-05-04 18:30 42.39327 -87.62820 17481 ft 384 kts 195°
2026-05-04 18:30 42.36688 -87.63488 18004 ft 386 kts 196°
2026-05-04 18:31 42.34033 -87.64139 18503 ft 389 kts 195°
2026-05-04 18:31 42.31295 -87.64341 18930 ft 405 kts 177°
2026-05-04 18:31 42.28545 -87.63291 19427 ft 417 kts 164°
2026-05-04 18:31 42.25847 -87.61803 19909 ft 421 kts 163°
2026-05-04 18:32 42.23140 -87.60250 20360 ft 425 kts 162°
2026-05-04 18:32 42.20412 -87.58680 20810 ft 428 kts 162°
2026-05-04 18:32 42.17655 -87.57116 21274 ft 431 kts 163°
2026-05-04 18:32 42.14876 -87.55565 21722 ft 434 kts 163°
2026-05-04 18:33 42.12078 -87.54019 22174 ft 436 kts 163°
2026-05-04 18:33 42.09256 -87.52469 22621 ft 440 kts 163°
2026-05-04 18:33 42.06416 -87.50911 23054 ft 443 kts 163°
2026-05-04 18:33 42.03552 -87.49340 23446 ft 446 kts 163°
2026-05-04 18:34 42.00668 -87.47760 23812 ft 448 kts 163°
2026-05-04 18:34 41.97809 -87.46026 24172 ft 456 kts 153°
2026-05-04 18:34 41.95299 -87.43342 24504 ft 466 kts 140°
2026-05-04 18:34 41.92959 -87.40326 24994 ft 466 kts 139°
2026-05-04 18:35 41.90628 -87.37299 25348 ft 468 kts 139°
2026-05-04 18:35 41.88269 -87.34257 25652 ft 472 kts 139°
2026-05-04 18:35 41.85882 -87.31216 25975 ft 475 kts 140°
2026-05-04 18:35 41.83475 -87.28180 26350 ft 476 kts 140°
2026-05-04 18:36 41.81045 -87.25139 26713 ft 478 kts 140°
2026-05-04 18:36 41.78602 -87.22095 27040 ft 481 kts 140°
2026-05-04 18:36 41.76145 -87.19041 27359 ft 483 kts 140°
2026-05-04 18:36 41.73678 -87.15978 27674 ft 485 kts 140°
2026-05-04 18:37 41.71202 -87.12906 28099 ft 485 kts 140°
2026-05-04 18:37 41.68721 -87.09828 28452 ft 487 kts 139°
2026-05-04 18:37 41.66232 -87.06745 28726 ft 490 kts 139°
2026-05-04 18:37 41.63729 -87.03647 29058 ft 491 kts 139°
2026-05-04 18:38 41.61218 -87.00541 29529 ft 490 kts 139°
2026-05-04 18:38 41.58728 -86.97463 29999 ft 487 kts 139°
2026-05-04 18:38 41.56243 -86.94397 30381 ft 486 kts 139°
2026-05-04 18:38 41.53759 -86.91336 30730 ft 485 kts 140°
2026-05-04 18:39 41.51277 -86.88280 31045 ft 485 kts 140°
2026-05-04 18:39 41.48802 -86.85236 31457 ft 483 kts 140°
2026-05-04 18:39 41.46339 -86.82210 31831 ft 481 kts 140°
2026-05-04 18:39 41.43906 -86.79224 32109 ft 482 kts 140°
2026-05-04 18:40 41.41439 -86.76200 32386 ft 482 kts 140°
2026-05-04 18:40 41.38972 -86.73178 32698 ft 482 kts 140°
2026-05-04 18:40 41.36505 -86.70160 33025 ft 481 kts 140°
2026-05-04 18:40 41.33957 -86.67310 33298 ft 478 kts 148°
2026-05-04 18:41 41.31127 -86.65045 33574 ft 473 kts 157°
2026-05-04 18:41 41.28111 -86.63354 33829 ft 467 kts 166°
2026-05-04 18:41 41.24988 -86.62222 34108 ft 464 kts 169°
2026-05-04 18:41 41.21862 -86.61172 34319 ft 464 kts 170°
2026-05-04 18:42 41.18727 -86.60128 34501 ft 465 kts 170°
2026-05-04 18:42 41.15588 -86.59076 34692 ft 465 kts 169°
2026-05-04 18:42 41.12445 -86.58010 34671 ft 468 kts 169°
2026-05-04 18:43 41.06167 -86.55850 34675 ft 465 kts 169°
2026-05-04 18:43 40.99906 -86.53681 34697 ft 465 kts 169°
2026-05-04 18:44 40.93655 -86.51517 34698 ft 465 kts 169°
2026-05-04 18:44 40.87381 -86.49350 34699 ft 466 kts 169°
2026-05-04 18:45 40.81110 -86.47190 34700 ft 466 kts 169°
2026-05-04 18:45 40.74828 -86.45030 34750 ft 467 kts 169°
2026-05-04 18:46 40.68580 -86.42887 34747 ft 467 kts 169°
2026-05-04 18:46 40.62286 -86.40731 34751 ft 468 kts 169°
2026-05-04 18:47 40.55983 -86.38577 34746 ft 468 kts 169°
2026-05-04 18:47 40.49676 -86.36425 34736 ft 469 kts 169°
2026-05-04 18:48 40.43362 -86.34276 34737 ft 469 kts 169°
2026-05-04 18:48 40.37049 -86.32130 34747 ft 468 kts 169°
2026-05-04 18:49 40.30744 -86.29992 34761 ft 468 kts 169°
2026-05-04 18:49 40.24442 -86.27858 34759 ft 468 kts 169°
2026-05-04 18:50 40.18139 -86.25729 34748 ft 468 kts 169°
2026-05-04 18:50 40.11844 -86.23607 34765 ft 467 kts 169°
2026-05-04 18:51 40.05589 -86.21502 34814 ft 467 kts 169°
2026-05-04 18:51 39.99286 -86.19384 34816 ft 468 kts 169°
2026-05-04 18:52 39.92936 -86.17256 34814 ft 468 kts 169°
2026-05-04 18:52 39.86670 -86.15159 34816 ft 470 kts 169°
2026-05-04 18:53 39.80335 -86.13044 34821 ft 470 kts 170°
2026-05-04 18:53 39.74003 -86.10933 34835 ft 470 kts 170°
2026-05-04 18:54 39.67667 -86.08824 34871 ft 470 kts 169°
2026-05-04 18:54 39.61315 -86.06715 34861 ft 472 kts 169°
2026-05-04 18:55 39.56024 -86.04962 34856 ft 473 kts 169°
2026-05-04 18:55 39.46477 -86.01802 34830 ft 471 kts 170°
2026-05-04 18:56 39.40143 -85.99711 34819 ft 468 kts 170°
2026-05-04 18:56 39.33856 -85.97639 34864 ft 465 kts 170°
2026-05-04 18:57 39.27592 -85.95580 34858 ft 464 kts 170°
2026-05-04 18:57 39.21344 -85.93530 34866 ft 463 kts 170°
2026-05-04 18:58 39.15095 -85.91484 34868 ft 463 kts 170°
2026-05-04 18:58 39.08844 -85.89441 34856 ft 464 kts 170°
2026-05-04 18:59 39.02577 -85.87396 34828 ft 465 kts 170°
2026-05-04 18:59 38.96302 -85.85352 34833 ft 466 kts 170°
2026-05-04 19:00 38.89999 -85.83302 34844 ft 468 kts 170°
2026-05-04 19:00 38.83674 -85.81250 34857 ft 470 kts 170°
2026-05-04 19:01 38.77324 -85.79192 34856 ft 471 kts 170°
2026-05-04 19:01 38.70964 -85.77135 34867 ft 472 kts 170°
2026-05-04 19:02 38.64628 -85.75089 34850 ft 473 kts 170°
2026-05-04 19:02 38.58245 -85.73032 34854 ft 473 kts 170°
2026-05-04 19:03 38.51865 -85.70980 34857 ft 472 kts 171°
2026-05-04 19:03 38.45492 -85.68933 34870 ft 472 kts 171°
2026-05-04 19:04 38.39122 -85.66892 34868 ft 472 kts 171°
2026-05-04 19:04 38.32761 -85.64857 34868 ft 471 kts 171°
2026-05-04 19:05 38.26407 -85.62828 34900 ft 471 kts 171°
2026-05-04 19:05 38.20058 -85.60804 34901 ft 470 kts 171°
2026-05-04 19:06 38.13756 -85.58814 34891 ft 469 kts 173°
2026-05-04 19:06 38.10553 -85.58273 34872 ft 461 kts 184°
2026-05-04 19:06 38.07374 -85.58336 34867 ft 453 kts 192°
2026-05-04 19:07 38.01236 -85.59728 34880 ft 448 kts 197°
2026-05-04 19:07 37.95112 -85.61243 34898 ft 449 kts 197°
2026-05-04 19:08 37.88969 -85.62722 34901 ft 450 kts 197°
2026-05-04 19:08 37.82818 -85.64173 34898 ft 450 kts 197°
2026-05-04 19:09 37.76703 -85.65605 34901 ft 450 kts 197°
2026-05-04 19:09 37.70542 -85.67045 34898 ft 450 kts 197°
2026-05-04 19:10 37.64342 -85.68492 34910 ft 450 kts 197°
2026-05-04 19:10 37.58229 -85.69917 34909 ft 449 kts 197°
2026-05-04 19:11 37.52085 -85.71348 34914 ft 449 kts 197°
2026-05-04 19:11 37.45942 -85.72775 34910 ft 448 kts 197°
2026-05-04 19:12 37.36756 -85.74905 34899 ft 447 kts 197°
2026-05-04 19:13 37.30602 -85.76329 34910 ft 446 kts 197°
2026-05-04 19:13 37.24541 -85.77730 34930 ft 446 kts 197°
2026-05-04 19:14 37.18435 -85.79140 34941 ft 446 kts 197°
2026-05-04 19:14 37.12329 -85.80547 34940 ft 446 kts 197°
2026-05-04 19:15 37.06217 -85.81952 34954 ft 447 kts 197°
2026-05-04 19:15 37.00098 -85.83357 34957 ft 447 kts 197°
2026-05-04 19:16 36.93974 -85.84760 34956 ft 448 kts 197°
2026-05-04 19:16 36.87847 -85.86162 34948 ft 448 kts 196°
2026-05-04 19:17 36.81718 -85.87562 34944 ft 448 kts 196°
2026-05-04 19:17 36.75585 -85.88961 34951 ft 448 kts 196°
2026-05-04 19:18 36.69451 -85.90357 34947 ft 448 kts 196°
2026-05-04 19:18 36.63324 -85.91750 34942 ft 447 kts 196°
2026-05-04 19:19 36.57200 -85.93140 34958 ft 447 kts 196°
2026-05-04 19:19 36.51079 -85.94527 34955 ft 447 kts 196°
2026-05-04 19:20 36.44964 -85.95910 34966 ft 447 kts 196°
2026-05-04 19:20 36.38852 -85.97290 34957 ft 446 kts 196°
2026-05-04 19:21 36.32750 -85.98667 34969 ft 446 kts 196°
2026-05-04 19:21 36.26651 -86.00040 34980 ft 446 kts 196°
2026-05-04 19:22 36.20589 -86.01402 34975 ft 446 kts 196°
2026-05-04 19:22 36.14486 -86.02772 34980 ft 446 kts 196°
2026-05-04 19:23 36.08380 -86.04141 34913 ft 448 kts 196°
2026-05-04 19:23 36.05293 -86.04834 34644 ft 452 kts 195°
2026-05-04 19:23 36.02208 -86.05524 34411 ft 450 kts 195°
2026-05-04 19:23 35.99138 -86.06207 34161 ft 446 kts 195°
2026-05-04 19:24 35.96090 -86.06885 33930 ft 445 kts 195°
2026-05-04 19:24 35.93039 -86.07567 33648 ft 446 kts 195°
2026-05-04 19:24 35.89988 -86.08248 33391 ft 446 kts 195°
2026-05-04 19:24 35.86928 -86.08930 33124 ft 447 kts 195°
2026-05-04 19:25 35.83861 -86.09614 33035 ft 450 kts 195°
2026-05-04 19:25 35.77660 -86.10995 33001 ft 452 kts 195°
2026-05-04 19:26 35.71526 -86.12351 32993 ft 444 kts 195°
2026-05-04 19:26 35.65442 -86.13700 33006 ft 444 kts 195°
2026-05-04 19:27 35.59347 -86.15051 33015 ft 445 kts 195°
2026-05-04 19:27 35.53244 -86.16400 33008 ft 446 kts 195°
2026-05-04 19:28 35.47124 -86.17732 33020 ft 449 kts 192°
2026-05-04 19:28 35.43975 -86.17706 32990 ft 460 kts 174°
2026-05-04 19:28 35.40900 -86.16505 33021 ft 470 kts 157°
2026-05-04 19:28 35.38169 -86.14249 33037 ft 477 kts 144°
2026-05-04 19:29 35.35616 -86.11644 33019 ft 479 kts 143°
2026-05-04 19:29 35.30467 -86.06469 33025 ft 479 kts 145°
2026-05-04 19:30 35.25237 -86.01417 33016 ft 479 kts 146°
2026-05-04 19:30 35.19979 -85.96392 33019 ft 480 kts 146°
2026-05-04 19:31 35.14715 -85.91366 33012 ft 479 kts 146°
2026-05-04 19:31 35.09465 -85.86352 33018 ft 479 kts 146°
2026-05-04 19:32 35.04216 -85.81348 32883 ft 480 kts 146°
2026-05-04 19:32 35.01557 -85.78819 32127 ft 488 kts 146°
2026-05-04 19:32 34.98893 -85.76283 31578 ft 483 kts 145°
2026-05-04 19:32 34.96260 -85.73777 31027 ft 478 kts 145°
2026-05-04 19:33 34.93652 -85.71297 30485 ft 474 kts 145°
2026-05-04 19:33 34.91061 -85.68837 29893 ft 470 kts 146°
2026-05-04 19:33 34.88484 -85.66425 29253 ft 463 kts 153°
2026-05-04 19:33 34.85578 -85.65085 28893 ft 440 kts 166°
2026-05-04 19:34 34.82852 -85.63427 28247 ft 447 kts 153°
2026-05-04 19:34 34.80194 -85.61418 27729 ft 443 kts 152°
2026-05-04 19:34 34.77685 -85.59223 27212 ft 443 kts 145°
2026-05-04 19:34 34.75355 -85.56895 26743 ft 439 kts 144°
2026-05-04 19:35 34.73021 -85.54516 26224 ft 436 kts 144°
2026-05-04 19:35 34.70713 -85.52147 25723 ft 433 kts 144°
2026-05-04 19:35 34.68417 -85.49793 25214 ft 431 kts 144°
2026-05-04 19:35 34.66129 -85.47456 24724 ft 428 kts 144°
2026-05-04 19:36 34.63858 -85.45134 24223 ft 426 kts 144°
2026-05-04 19:36 34.61592 -85.42829 23727 ft 424 kts 144°
2026-05-04 19:36 34.59334 -85.40544 23146 ft 422 kts 144°
2026-05-04 19:36 34.57092 -85.38271 22624 ft 418 kts 144°
2026-05-04 19:37 34.54868 -85.36024 22110 ft 415 kts 144°
2026-05-04 19:37 34.52661 -85.33795 21619 ft 411 kts 144°
2026-05-04 19:37 34.50471 -85.31584 21131 ft 408 kts 144°
2026-05-04 19:37 34.48300 -85.29392 20656 ft 405 kts 144°
2026-05-04 19:38 34.46147 -85.27216 20178 ft 402 kts 144°
2026-05-04 19:38 34.43975 -85.25025 19722 ft 399 kts 144°
2026-05-04 19:38 34.41876 -85.22909 19267 ft 397 kts 143°
2026-05-04 19:38 34.39761 -85.20780 18797 ft 394 kts 143°
2026-05-04 19:39 34.37662 -85.18667 18272 ft 390 kts 143°
2026-05-04 19:39 34.35594 -85.16589 17718 ft 383 kts 144°
2026-05-04 19:39 34.33524 -85.14601 17289 ft 378 kts 145°
2026-05-04 19:39 34.31444 -85.12676 16818 ft 375 kts 146°
2026-05-04 19:40 34.29373 -85.10774 16358 ft 372 kts 146°
2026-05-04 19:40 34.27323 -85.08887 15901 ft 369 kts 145°
2026-05-04 19:40 34.25289 -85.07007 15453 ft 367 kts 145°
2026-05-04 19:40 34.23269 -85.05133 14997 ft 365 kts 145°
2026-05-04 19:41 34.21265 -85.03272 14557 ft 363 kts 144°
2026-05-04 19:41 34.19264 -85.01412 14113 ft 361 kts 144°
2026-05-04 19:41 34.17949 -85.00189 13814 ft 360 kts 144°
2026-05-04 19:41 34.15965 -84.98346 13318 ft 358 kts 144°
2026-05-04 19:42 34.13997 -84.96519 12924 ft 354 kts 144°
2026-05-04 19:42 34.12093 -84.94723 12764 ft 343 kts 144°
2026-05-04 19:42 34.10233 -84.92957 12582 ft 339 kts 144°
2026-05-04 19:42 34.08387 -84.91204 12446 ft 337 kts 144°
2026-05-04 19:43 34.06543 -84.89455 12275 ft 337 kts 144°
2026-05-04 19:43 34.04699 -84.87710 12121 ft 336 kts 144°
2026-05-04 19:43 34.02859 -84.85970 11962 ft 336 kts 144°
2026-05-04 19:43 34.01032 -84.84245 11802 ft 334 kts 144°
2026-05-04 19:44 33.99202 -84.82516 11647 ft 333 kts 144°
2026-05-04 19:44 33.97376 -84.80798 11494 ft 332 kts 144°
2026-05-04 19:44 33.95561 -84.79088 11326 ft 331 kts 144°
2026-05-04 19:44 33.93754 -84.77382 11172 ft 329 kts 144°
2026-05-04 19:45 33.91954 -84.75685 11020 ft 328 kts 144°
2026-05-04 19:45 33.90173 -84.74008 10861 ft 320 kts 144°
2026-05-04 19:45 33.88446 -84.72381 10709 ft 310 kts 144°
2026-05-04 19:45 33.86772 -84.70805 10536 ft 301 kts 144°
2026-05-04 19:46 33.85149 -84.69278 10404 ft 291 kts 144°
2026-05-04 19:46 33.83576 -84.67801 10258 ft 283 kts 144°
2026-05-04 19:46 33.82047 -84.66365 10127 ft 274 kts 144°
2026-05-04 19:46 33.80568 -84.64976 10012 ft 265 kts 144°
2026-05-04 19:47 33.79136 -84.63633 9879 ft 257 kts 144°
2026-05-04 19:47 33.77746 -84.62330 9746 ft 249 kts 144°
2026-05-04 19:47 33.76403 -84.61070 9626 ft 241 kts 144°
2026-05-04 19:47 33.75094 -84.59844 9524 ft 238 kts 145°
2026-05-04 19:48 33.73857 -84.58522 9411 ft 242 kts 128°
2026-05-04 19:48 33.73287 -84.56635 9342 ft 244 kts 99°
2026-05-04 19:48 33.73223 -84.54585 9202 ft 247 kts 92°
2026-05-04 19:48 33.73249 -84.52526 9100 ft 246 kts 92°
2026-05-04 19:49 33.73273 -84.50478 8984 ft 245 kts 92°
2026-05-04 19:49 33.73285 -84.48440 8867 ft 244 kts 92°
2026-05-04 19:49 33.73290 -84.46404 8738 ft 243 kts 93°
2026-05-04 19:49 33.73293 -84.44378 8632 ft 242 kts 93°
2026-05-04 19:50 33.73294 -84.42358 8519 ft 242 kts 93°
2026-05-04 19:50 33.73295 -84.40337 8406 ft 242 kts 93°
2026-05-04 19:50 33.73295 -84.38314 8286 ft 242 kts 92°
2026-05-04 19:50 33.73295 -84.36297 8156 ft 242 kts 93°
2026-05-04 19:51 33.73294 -84.34273 8039 ft 242 kts 92°
2026-05-04 19:51 33.73294 -84.32244 7818 ft 246 kts 92°
2026-05-04 19:51 33.73293 -84.30201 7563 ft 248 kts 92°
2026-05-04 19:51 33.73291 -84.28112 7308 ft 245 kts 92°
2026-05-04 19:52 33.73290 -84.26093 7023 ft 239 kts 92°
2026-05-04 19:52 33.73290 -84.24111 6765 ft 236 kts 92°
2026-05-04 19:52 33.73288 -84.22144 6490 ft 235 kts 92°
2026-05-04 19:52 33.73273 -84.20209 6208 ft 229 kts 96°
2026-05-04 19:53 33.72967 -84.18373 5898 ft 221 kts 117°
2026-05-04 19:53 33.72081 -84.16947 5683 ft 208 kts 141°
2026-05-04 19:53 33.70906 -84.16001 5420 ft 199 kts 158°
2026-05-04 19:53 33.69618 -84.15535 5225 ft 192 kts 176°
2026-05-04 19:54 33.68288 -84.15600 5021 ft 193 kts 191°
2026-05-04 19:54 33.67066 -84.16166 4790 ft 190 kts 210°
2026-05-04 19:54 33.66037 -84.17123 4577 ft 187 kts 229°
2026-05-04 19:54 33.65319 -84.18404 4346 ft 186 kts 246°
2026-05-04 19:55 33.64962 -84.19893 4198 ft 188 kts 262°
2026-05-04 19:55 33.64980 -84.21450 4141 ft 184 kts 270°
2026-05-04 19:55 33.64989 -84.23028 3911 ft 191 kts 269°
2026-05-04 19:55 33.64981 -84.24645 3635 ft 195 kts 269°
2026-05-04 19:56 33.64973 -84.26261 3441 ft 194 kts 268°
2026-05-04 19:56 33.64933 -84.27857 3139 ft 183 kts 268°
2026-05-04 19:56 33.64956 -84.29300 2937 ft 164 kts 268°
2026-05-04 19:56 33.64964 -84.30630 2732 ft 158 kts 268°
2026-05-04 19:57 33.64961 -84.31949 2528 ft 157 kts 268°
2026-05-04 19:57 33.64966 -84.33268 2283 ft 157 kts 267°
2026-05-04 19:57 33.64958 -84.34547 2084 ft 151 kts 268°
2026-05-04 19:57 33.64968 -84.35798 1878 ft 149 kts 266°
2026-05-04 19:58 33.64956 -84.37058 1697 ft 155 kts 268°
2026-05-04 19:58 33.64961 -84.38343 1459 ft 156 kts 269°
2026-05-04 19:58 33.64959 -84.39659 1292 ft 160 kts 267°
2026-05-04 19:58 33.64951 -84.40999 1048 ft 160 kts 268°
2026-05-04 19:59 33.64952 -84.42248 1006 ft 133 kts 270°
2026-05-04 19:59 33.64953 -84.43180 1005 ft 90 kts 270°
2026-05-04 19:59 33.64953 -84.43671 1006 ft 17 kts 265°
2026-05-04 19:59 33.64886 -84.43744 1005 ft 12 kts 201°
2026-05-04 20:00 33.64836 -84.43814 1005 ft 11 kts 245°
2026-05-04 20:00 33.64804 -84.43899 1005 ft 12 kts 245°
2026-05-04 20:00 33.64784 -84.44004 1005 ft 15 kts 269°
2026-05-04 20:00 33.64783 -84.44132 1005 ft 15 kts 269°
2026-05-04 20:01 33.64780 -84.44257 1005 ft 15 kts 254°
2026-05-04 20:01 33.64706 -84.44333 1005 ft 14 kts 196°
2026-05-04 20:01 33.64615 -84.44312 1005 ft 13 kts 151°
2026-05-04 20:01 33.64575 -84.44221 1005 ft 13 kts 91°
2026-05-04 20:02 33.64549 -84.44126 1005 ft 13 kts 151°
2026-05-04 20:02 33.64467 -84.44100 1005 ft 12 kts 145°
2026-05-04 20:02 33.64394 -84.44053 1005 ft 12 kts 173°
2026-05-04 20:02 33.64312 -84.44049 1005 ft 12 kts 180°
2026-05-04 20:03 33.64232 -84.44045 1005 ft 11 kts 163°
2026-05-04 20:03 33.64210 -84.43991 1005 ft 4 kts 94°
2026-05-04 20:03 33.64209 -84.43972 1005 ft 1 kts 91°
2026-05-04 20:03 33.64209 -84.43971 1005 ft 0 kts 91°